This is the latest recevied weather packets stored in our database for station/object HB9ZRH-10. If no packets are shown the sender has not sent any weather packets the latest 10 day(s).
| Time | Temp. | Humidity | Pressure | Rain* | Wind** | Luminosity | Snow |
|---|---|---|---|---|---|---|---|
| 1777528790 | 20.56° C | 41% | 1020.9 hPa | - | - | - | - |
| 1777528490 | 17.78° C | 43% | 1020.8 hPa | - | - | - | - |
| 1777528190 | 17.78° C | 43% | 1020.8 hPa | - | - | - | - |
| 1777527890 | 17.78° C | 43% | 1020.8 hPa | - | - | - | - |
| 1777527590 | 17.78° C | 42% | 1020.8 hPa | - | - | - | - |
| 1777527290 | 18.33° C | 43% | 1020.7 hPa | - | - | - | - |
| 1777526990 | 20° C | 41% | 1020.7 hPa | - | - | - | - |
| 1777526690 | 20° C | 42% | 1020.5 hPa | - | - | - | - |
| 1777526390 | 20° C | 42% | 1020.5 hPa | - | - | - | - |
| 1777526090 | 20° C | 41% | 1020.5 hPa | - | - | - | - |
| 1777525790 | 20.56° C | 41% | 1020.4 hPa | - | - | - | - |
| 1777525490 | 20.56° C | 42% | 1020.2 hPa | - | - | - | - |
| 1777525190 | 17.78° C | 44% | 1020.2 hPa | - | - | - | - |
| 1777524890 | 16.67° C | 44% | 1020.2 hPa | - | - | - | - |
| 1777524590 | 17.22° C | 44% | 1020.3 hPa | - | - | - | - |
| 1777524290 | 15° C | 45% | 1020.3 hPa | - | - | - | - |
| 1777523990 | 13.89° C | 46% | 1020.4 hPa | - | - | - | - |
| 1777523690 | 15.56° C | 45% | 1020.4 hPa | - | - | - | - |
| 1777523390 | 16.11° C | 45% | 1020.5 hPa | - | - | - | - |
| 1777523090 | 16.67° C | 44% | 1020.3 hPa | - | - | - | - |
| 1777522790 | 17.22° C | 44% | 1020.3 hPa | - | - | - | - |
| 1777522490 | 16.11° C | 44% | 1020.3 hPa | - | - | - | - |
| 1777522190 | 16.67° C | 43% | 1020.2 hPa | - | - | - | - |
| 1777521890 | 18.33° C | 43% | 1020 hPa | - | - | - | - |
| 1777521590 | 17.22° C | 44% | 1019.8 hPa | - | - | - | - |
* Rain since midnight (hover to see other rain measurements)
** Current wind speed in m/s (hover to see current wind gust speed)